DEWLS EDRK-EDLV

Flight info

Callsign DEWLS
Flight time 0h 41m
Altitude 6000
Route VFR
Aircraft S22T/L-V/N

Departure

Time 2026-05-09 12:49
Airport Koblenz-Winningen Airfield (EDRK)

Arrival

Time 2026-05-09 13:30
Airport Weeze (Niederrhein) Airport (EDLV)
Time Latitude Longitude Altitude Speed Heading
2026-05-09 12:32 50.32406 7.52804 651 ft 0 kts 146°
2026-05-09 12:43 50.32396 7.52802 650 ft 0 kts 224°
2026-05-09 12:43 50.32395 7.52800 650 ft 0 kts 232°
2026-05-09 12:43 50.32406 7.52804 651 ft 0 kts 146°
2026-05-09 12:46 50.32404 7.52818 651 ft 3 kts 65°
2026-05-09 12:46 50.32433 7.52813 652 ft 5 kts 329°
2026-05-09 12:46 50.32408 7.52732 651 ft 13 kts 235°
2026-05-09 12:46 50.32349 7.52596 652 ft 16 kts 234°
2026-05-09 12:47 50.32284 7.52434 650 ft 18 kts 254°
2026-05-09 12:47 50.32277 7.52351 652 ft 0 kts 293°
2026-05-09 12:47 50.32278 7.52348 652 ft 2 kts 299°
2026-05-09 12:48 50.32281 7.52341 652 ft 0 kts 310°
2026-05-09 12:48 50.32298 7.52322 652 ft 7 kts 315°
2026-05-09 12:48 50.32347 7.52373 650 ft 26 kts 57°
2026-05-09 12:49 50.32585 7.52933 741 ft 80 kts 56°
2026-05-09 12:49 50.32900 7.53674 1064 ft 85 kts 54°
2026-05-09 12:49 50.33353 7.54294 1383 ft 97 kts 355°
2026-05-09 12:49 50.33942 7.53789 1777 ft 101 kts 323°
2026-05-09 12:50 50.34505 7.53096 2183 ft 105 kts 320°
2026-05-09 12:50 50.34961 7.52204 2584 ft 108 kts 280°
2026-05-09 12:50 50.34637 7.51158 2932 ft 115 kts 224°
2026-05-09 12:50 50.34158 7.50212 3408 ft 112 kts 233°
2026-05-09 12:51 50.33567 7.49275 3665 ft 126 kts 218°
2026-05-09 12:51 50.32873 7.48284 3663 ft 150 kts 237°
2026-05-09 12:51 50.32555 7.46524 3376 ft 177 kts 264°
2026-05-09 12:51 50.32932 7.44831 3584 ft 169 kts 305°
2026-05-09 12:52 50.33383 7.43118 3584 ft 174 kts 272°
2026-05-09 12:52 50.32984 7.41383 3673 ft 173 kts 229°
2026-05-09 12:52 50.32038 7.40229 3752 ft 173 kts 223°
2026-05-09 12:52 50.31455 7.38596 3764 ft 176 kts 257°
2026-05-09 12:53 50.31396 7.36688 3772 ft 178 kts 282°
2026-05-09 12:53 50.32048 7.35074 3763 ft 179 kts 319°
2026-05-09 12:53 50.32999 7.33826 3813 ft 178 kts 319°
2026-05-09 12:53 50.33913 7.32552 3824 ft 179 kts 319°
2026-05-09 12:54 50.34842 7.31256 3842 ft 179 kts 319°
2026-05-09 12:54 50.35772 7.29960 3866 ft 179 kts 319°
2026-05-09 12:54 50.36702 7.28663 3886 ft 179 kts 319°
2026-05-09 12:54 50.37634 7.27364 3899 ft 179 kts 319°
2026-05-09 12:55 50.38567 7.26064 3919 ft 179 kts 319°
2026-05-09 12:55 50.39500 7.24766 3947 ft 180 kts 319°
2026-05-09 12:55 50.40433 7.23464 3964 ft 180 kts 319°
2026-05-09 12:55 50.41368 7.22160 4000 ft 179 kts 318°
2026-05-09 12:56 50.42276 7.20889 4169 ft 172 kts 319°
2026-05-09 12:56 50.43143 7.19646 4396 ft 165 kts 314°
2026-05-09 12:56 50.43848 7.18262 4558 ft 165 kts 307°
2026-05-09 12:56 50.44528 7.16807 4719 ft 165 kts 307°
2026-05-09 12:57 50.45209 7.15347 4876 ft 166 kts 306°
2026-05-09 12:57 50.45892 7.13886 5028 ft 166 kts 306°
2026-05-09 12:57 50.46544 7.12386 5178 ft 167 kts 302°
2026-05-09 12:57 50.47152 7.10826 5332 ft 167 kts 301°
2026-05-09 12:58 50.47742 7.09253 5487 ft 167 kts 300°
2026-05-09 12:58 50.48329 7.07674 5643 ft 168 kts 300°
2026-05-09 12:58 50.48915 7.06089 5793 ft 168 kts 300°
2026-05-09 12:58 50.49507 7.04491 5888 ft 172 kts 300°
2026-05-09 12:59 50.50124 7.02831 5888 ft 178 kts 300°
2026-05-09 12:59 50.50754 7.01132 5894 ft 181 kts 300°
2026-05-09 12:59 50.51383 6.99432 5899 ft 183 kts 300°
2026-05-09 12:59 50.52024 6.97700 5899 ft 184 kts 300°
2026-05-09 13:00 50.52670 6.95954 5899 ft 185 kts 300°
2026-05-09 13:00 50.53316 6.94206 5898 ft 185 kts 300°
2026-05-09 13:00 50.53964 6.92451 5899 ft 185 kts 300°
2026-05-09 13:00 50.54612 6.90700 5897 ft 186 kts 300°
2026-05-09 13:01 50.55260 6.88939 5897 ft 186 kts 300°
2026-05-09 13:01 50.55905 6.87184 5897 ft 186 kts 299°
2026-05-09 13:01 50.56543 6.85421 5896 ft 185 kts 299°
2026-05-09 13:01 50.57181 6.83661 5896 ft 185 kts 299°
2026-05-09 13:02 50.57823 6.81900 5895 ft 185 kts 299°
2026-05-09 13:02 50.58467 6.80142 5895 ft 185 kts 299°
2026-05-09 13:02 50.59112 6.78386 5895 ft 186 kts 299°
2026-05-09 13:02 50.59749 6.76648 5894 ft 186 kts 299°
2026-05-09 13:03 50.60394 6.74894 5894 ft 186 kts 299°
2026-05-09 13:03 50.61039 6.73135 5893 ft 186 kts 299°
2026-05-09 13:03 50.61688 6.71371 5893 ft 186 kts 299°
2026-05-09 13:03 50.62333 6.69616 5892 ft 186 kts 299°
2026-05-09 13:04 50.62979 6.67857 5892 ft 186 kts 299°
2026-05-09 13:04 50.63623 6.66106 5891 ft 186 kts 299°
2026-05-09 13:04 50.64273 6.64335 5891 ft 186 kts 299°
2026-05-09 13:04 50.64919 6.62574 5891 ft 186 kts 299°
2026-05-09 13:05 50.65567 6.60812 5890 ft 186 kts 299°
2026-05-09 13:05 50.66204 6.59078 5890 ft 186 kts 299°
2026-05-09 13:05 50.66860 6.57292 5889 ft 186 kts 299°
2026-05-09 13:05 50.67499 6.55553 5889 ft 186 kts 299°
2026-05-09 13:06 50.68143 6.53793 5888 ft 186 kts 299°
2026-05-09 13:06 50.68790 6.52030 5887 ft 186 kts 299°
2026-05-09 13:06 50.69435 6.50273 5888 ft 186 kts 299°
2026-05-09 13:06 50.70082 6.48505 5887 ft 186 kts 299°
2026-05-09 13:07 50.70871 6.46911 5877 ft 186 kts 320°
2026-05-09 13:07 50.72056 6.46177 5879 ft 185 kts 351°
2026-05-09 13:07 50.73292 6.45940 5879 ft 175 kts 352°
2026-05-09 13:07 50.74518 6.45699 5880 ft 180 kts 352°
2026-05-09 13:08 50.75768 6.45448 5879 ft 178 kts 352°
2026-05-09 13:08 50.76996 6.45183 5597 ft 180 kts 352°
2026-05-09 13:08 50.78224 6.44913 5334 ft 180 kts 352°
2026-05-09 13:08 50.79461 6.44642 5077 ft 178 kts 352°
2026-05-09 13:09 50.80678 6.44377 4665 ft 177 kts 352°
2026-05-09 13:09 50.81900 6.44111 4238 ft 177 kts 352°
2026-05-09 13:09 50.83113 6.43843 3823 ft 175 kts 352°
2026-05-09 13:09 50.84316 6.43579 3417 ft 174 kts 352°
2026-05-09 13:10 50.85511 6.43285 3014 ft 173 kts 349°
2026-05-09 13:10 50.86660 6.42957 2887 ft 159 kts 351°
2026-05-09 13:10 50.87694 6.42686 2879 ft 144 kts 349°
2026-05-09 13:10 50.88646 6.42422 2880 ft 135 kts 349°
2026-05-09 13:11 50.89548 6.42176 2881 ft 129 kts 349°
2026-05-09 13:11 50.90418 6.41938 2881 ft 125 kts 349°
2026-05-09 13:11 50.91267 6.41704 2879 ft 123 kts 349°
2026-05-09 13:11 50.92094 6.41419 2881 ft 121 kts 348°
2026-05-09 13:12 50.92919 6.41186 2881 ft 120 kts 349°
2026-05-09 13:12 50.93732 6.40928 2884 ft 119 kts 347°
2026-05-09 13:12 50.94544 6.40661 2880 ft 119 kts 347°
2026-05-09 13:12 50.95357 6.40392 2881 ft 119 kts 348°
2026-05-09 13:13 50.96156 6.40133 2879 ft 118 kts 347°
2026-05-09 13:13 50.96952 6.39827 2883 ft 118 kts 342°
2026-05-09 13:13 50.97741 6.39476 2880 ft 118 kts 345°
2026-05-09 13:13 50.98531 6.39146 2881 ft 117 kts 345°
2026-05-09 13:14 50.99323 6.38851 2879 ft 117 kts 347°
2026-05-09 13:14 51.00117 6.38564 2883 ft 117 kts 347°
2026-05-09 13:16 51.06359 6.36324 2901 ft 168 kts 349°
2026-05-09 13:16 51.07527 6.35993 2900 ft 172 kts 349°
2026-05-09 13:16 51.08716 6.35626 2900 ft 176 kts 348°
2026-05-09 13:16 51.09924 6.35251 2899 ft 178 kts 348°
2026-05-09 13:17 51.11143 6.34872 2899 ft 179 kts 348°
2026-05-09 13:17 51.12361 6.34493 2898 ft 179 kts 348°
2026-05-09 13:17 51.13583 6.34110 2898 ft 179 kts 348°
2026-05-09 13:17 51.14811 6.33769 2897 ft 179 kts 350°
2026-05-09 13:18 51.15628 6.33562 2898 ft 180 kts 350°
2026-05-09 13:18 51.16859 6.33246 2896 ft 179 kts 350°
2026-05-09 13:18 51.18092 6.32933 2895 ft 179 kts 350°
2026-05-09 13:18 51.19720 6.32520 2894 ft 179 kts 350°
2026-05-09 13:19 51.20948 6.32207 2895 ft 179 kts 350°
2026-05-09 13:19 51.22177 6.31894 2895 ft 179 kts 350°
2026-05-09 13:19 51.22992 6.31687 2893 ft 179 kts 350°
2026-05-09 13:19 51.24635 6.31268 2893 ft 179 kts 350°
2026-05-09 13:20 51.25450 6.31058 2893 ft 179 kts 350°
2026-05-09 13:20 51.26679 6.30744 2893 ft 179 kts 350°
2026-05-09 13:20 51.27906 6.30429 2892 ft 179 kts 350°
2026-05-09 13:20 51.29136 6.30114 2893 ft 179 kts 350°
2026-05-09 13:21 51.30368 6.29799 2891 ft 179 kts 350°
2026-05-09 13:21 51.31601 6.29529 2890 ft 179 kts 352°
2026-05-09 13:21 51.32837 6.29282 2889 ft 179 kts 352°
2026-05-09 13:21 51.34072 6.29036 2890 ft 179 kts 352°
2026-05-09 13:22 51.35694 6.28715 2979 ft 175 kts 352°
2026-05-09 13:22 51.36512 6.28551 2993 ft 176 kts 352°
2026-05-09 13:22 51.37712 6.28312 2992 ft 177 kts 352°
2026-05-09 13:23 51.42633 6.27302 2992 ft 178 kts 352°
2026-05-09 13:23 51.43854 6.27055 2852 ft 177 kts 352°
2026-05-09 13:24 51.45083 6.26808 2630 ft 178 kts 352°
2026-05-09 13:24 51.46310 6.26563 2434 ft 176 kts 352°
2026-05-09 13:24 51.47491 6.26336 2202 ft 163 kts 352°
2026-05-09 13:24 51.48551 6.26133 2189 ft 144 kts 352°
2026-05-09 13:25 51.49483 6.25961 2187 ft 126 kts 353°
2026-05-09 13:25 51.50299 6.25813 2185 ft 113 kts 353°
2026-05-09 13:25 51.51799 6.25537 2135 ft 109 kts 352°
2026-05-09 13:26 51.52547 6.25399 2122 ft 107 kts 353°
2026-05-09 13:26 51.53285 6.25267 2090 ft 106 kts 353°
2026-05-09 13:26 51.54020 6.25134 2006 ft 107 kts 352°
2026-05-09 13:26 51.54741 6.24998 1994 ft 103 kts 352°
2026-05-09 13:27 51.55470 6.24865 2001 ft 108 kts 352°
2026-05-09 13:27 51.56209 6.24641 2052 ft 107 kts 340°
2026-05-09 13:27 51.56870 6.24109 2097 ft 106 kts 335°
2026-05-09 13:27 51.57559 6.23661 2110 ft 109 kts 343°
2026-05-09 13:28 51.58300 6.23443 2178 ft 106 kts 349°
2026-05-09 13:28 51.59029 6.23211 2201 ft 107 kts 348°
2026-05-09 13:28 51.59752 6.23049 2265 ft 104 kts 351°
2026-05-09 13:28 51.60315 6.22482 2065 ft 102 kts 291°
2026-05-09 13:29 51.60256 6.21336 1776 ft 104 kts 252°
2026-05-09 13:29 51.60129 6.20188 1469 ft 107 kts 267°
2026-05-09 13:29 51.60141 6.18967 1137 ft 110 kts 272°
2026-05-09 13:29 51.60164 6.17718 772 ft 114 kts 271°
2026-05-09 13:30 51.60183 6.16444 391 ft 116 kts 272°
2026-05-09 13:30 51.60208 6.15254 132 ft 95 kts 271°
2026-05-09 13:30 51.60231 6.14356 99 ft 70 kts 272°
2026-05-09 13:30 51.60249 6.13809 100 ft 38 kts 273°
2026-05-09 13:31 51.60257 6.13401 98 ft 35 kts 276°
2026-05-09 13:31 51.60268 6.13037 94 ft 26 kts 268°
2026-05-09 13:31 51.60203 6.12956 95 ft 12 kts 180°
2026-05-09 13:31 51.60179 6.12954 95 ft 0 kts 184°
2026-05-09 13:33 51.60176 6.12953 95 ft 3 kts 184°
2026-05-09 13:33 51.60127 6.12951 96 ft 11 kts 181°
2026-05-09 13:33 51.60081 6.13053 96 ft 16 kts 93°
2026-05-09 13:33 51.60076 6.13258 97 ft 20 kts 92°
2026-05-09 13:34 51.60071 6.13494 97 ft 22 kts 91°
2026-05-09 13:34 51.60069 6.13746 98 ft 23 kts 96°
2026-05-09 13:34 51.60060 6.13998 99 ft 22 kts 91°
2026-05-09 13:34 51.60055 6.14252 99 ft 23 kts 92°
2026-05-09 13:35 51.60050 6.14507 100 ft 22 kts 91°
2026-05-09 13:35 51.60047 6.14763 101 ft 23 kts 93°
2026-05-09 13:35 51.60041 6.15026 102 ft 24 kts 91°
2026-05-09 13:35 51.60037 6.15235 102 ft 19 kts 90°
2026-05-09 13:36 51.60027 6.15454 103 ft 19 kts 114°
2026-05-09 13:36 51.59951 6.15558 103 ft 17 kts 141°
2026-05-09 13:36 51.59853 6.15597 103 ft 11 kts 174°
2026-05-09 13:36 51.59843 6.15599 103 ft 0 kts 169°